Temperature
6 6 5 5 5 4 4 3 3 2 3 3 3 4 3 3 3 3 3 3 3 3 3 2 2 2 2 2 2 2 1 1 1 1 1 1 2 2
6 5 5 5 4 4 4 3 3 2 2 3 3 3 3 3 3 3 3 3 3 2 2 2 2 2 2 1 1 1 1 1 1 1 1 1 1 1
5 5 5 4 4 4 3 3 3 2 2 3 3 3 3 3 3 3 2 2 2 2 2 1 1 1 1 1 1 1 1 1 1 1 1 1 1 1
5 4 4 4 4 3 3 3 3 2 2 2 3 3 3 2 2 2 2 2 2 2 2 1 1 1 1 1 1 1 1 0 0 0 0 0 0 1
4 4 4 4 3 3 3 3 3 2 2 2 2 2 2 2 2 2 2 2 1 1 1 1 1 1 1 1 1 0 0 0 0 0 0 -0 0 0
3 3 3 3 3 3 2 2 2 2 2 2 2 2 2 1 1 1 1 1 1 1 1 1 1 1 1 0 0 -0 -0 -0 -0 -0 -0 -0 -0 -0
3 3 3 3 3 2 2 2 2 2 2 1 1 1 1 1 0 0 0 0 1 1 1 0 0 0 0 -0 -0 -0 -0 -0 -1 -1 -1 -0 -0 -0
2 2 2 2 2 2 2 2 2 1 1 1 1 0 0 0 -0 -0 -1 -1 -1 0 -0 0 -0 -0 -0 -0 -1 -1 -1 -1 -1 -1 -1 -1 -1 -0
2 2 2 2 2 2 2 2 1 1 1 1 0 0 -0 -0 -0 -1 -1 -1 -1 -1 -1 -1 -0 -1 -0 -0 -1 -1 -1 -1 -1 -1 -1 -1 -1 -1
2 2 1 1 1 1 1 1 1 1 1 0 0 -0 -0 -0 -1 -1 -1 -1 -1 -1 -1 -1 -1 -1 -1 -1 -1 -1 -1 -1 -1 -1 -1 -1 -1 -1
1 1 1 1 1 1 1 1 1 1 1 0 0 -0 -0 -0 -1 -1 -1 -2 -2 -2 -2 -2 -2 -2 -1 -1 -1 -1 -1 -1 -1 -1 -1 -1 -1 -1
1 1 1 1 1 0 0 0 0 0 0 0 0 -0 -0 -1 -1 -1 -2 -2 -3 -3 -2 -3 -3 -3 -2 -1 -1 -1 -1 -1 -1 -1 -1 -1 -1 -1
0 0 0 0 0 0 -0 -0 -0 -0 -0 -0 -0 -0 -1 -1 -1 -2 -2 -2 -3 -3 -3 -3 -3 -3 -3 -2 -2 -2 -2 -2 -1 -1 -1 -1 -1 -1
-0 -0 -0 -0 -0 -0 -0 -0 -0 -1 -1 -1 -1 -1 -1 -1 -1 -2 -2 -2 -2 -3 -3 -3 -3 -3 -3 -3 -3 -2 -2 -2 -2 -2 -2 -1 -1 -1
-1 -1 -1 -1 -1 -1 -1 -1 -1 -1 -1 -1 -1 -1 -1 -2 -2 -2 -2 -2 -2 -2 -2 -3 -3 -3 -3 -3 -3 -3 -2 -2 -2 -2 -2 -2 -2 -1
-1 -1 -1 -1 -1 -1 -1 -1 -1 -1 -2 -2 -2 -2 -2 -2 -2 -2 -2 -2 -2 -2 -2 -3 -3 -3 -3 -3 -3 -3 -3 -3 -2 -2 -2 -2 -2 -2
-2 -2 -2 -2 -2 -1 -2 -2 -2 -2 -2 -2 -2 -2 -2 -2 -2 -2 -2 -3 -3 -3 -3 -2 -3 -3 -3 -3 -3 -3 -3 -3 -3 -3 -2 -2 -2 -2
-2 -2 -2 -2 -2 -2 -2 -2 -2 -2 -2 -2 -3 -3 -3 -3 -3 -3 -3 -3 -3 -3 -3 -3 -3 -3 -3 -3 -3 -3 -3 -3 -3 -3 -3 -3 -3 -3
-3 -3 -3 -3 -3 -3 -3 -3 -3 -3 -3 -3 -3 -3 -3 -3 -3 -3 -3 -3 -3 -3 -3 -3 -3 -4 -4 -4 -3 -3 -3 -3 -3 -3 -3 -3 -3 -3
-3 -3 -3 -3 -3 -3 -3 -3 -3 -3 -3 -3 -3 -3 -3 -4 -3 -3 -3 -3 -3 -3 -3 -3 -3 -4 -4 -4 -4 -3 -3 -3 -3 -3 -3 -3 -3 -3
-4 -4 -4 -3 -4 -4 -4 -4 -4 -4 -4 -4 -4 -4 -4 -4 -4 -4 -3 -3 -3 -3 -3 -3 -3 -3 -4 -4 -4 -4 -3 -3 -3 -3 -3 -3 -3 -3
-4 -4 -4 -4 -4 -4 -4 -4 -4 -4 -4 -4 -4 -4 -4 -4 -4 -4 -4 -3 -4 -4 -4 -3 -3 -3 -3 -4 -4 -4 -3 -3 -3 -3 -3 -3 -3 -4
-4 -4 -4 -4 -4 -4 -4 -4 -4 -4 -4 -4 -4 -4 -4 -4 -4 -4 -4 -4 -4 -4 -4 -3 -3 -3 -4 -4 -4 -4 -4 -3 -3 -3 -3 -3 -3 -3
Wind_Speed
2 2 2 2 3 3 3 4 5 6 7 6 5 7 9 10 12 14 14 16 17 18 19 19 19 19 19 19 19 19 19 20 20 20 21 21 22 22
2 2 2 3 3 3 3 4 5 6 7 6 7 9 10 10 13 13 14 16 16 16 18 18 19 19 19 19 19 19 19 19 20 20 21 21 21 22
2 3 3 3 3 3 3 4 5 6 8 9 8 9 10 11 11 12 13 13 12 15 17 18 18 18 18 18 18 18 19 19 19 20 20 21 21 21
3 3 4 3 4 4 4 5 5 6 8 11 9 9 10 10 11 12 12 12 12 14 17 17 17 17 17 17 18 18 18 18 19 19 20 20 20 20
3 4 4 4 5 4 5 5 6 6 7 8 10 8 8 9 10 11 11 10 11 13 15 15 16 17 17 17 17 18 18 18 18 19 19 20 20 19
3 4 4 5 5 6 5 6 6 7 7 8 8 8 8 9 9 9 10 10 10 11 12 13 14 16 16 16 16 17 17 18 18 18 19 19 18 18
4 4 4 5 6 6 6 6 6 6 6 7 8 8 8 8 8 8 10 11 11 8 10 10 11 10 12 13 14 16 17 17 18 19 19 18 18 17
4 4 4 5 6 8 8 8 8 7 7 7 7 8 9 9 9 9 9 10 8 7 10 11 9 9 10 10 14 17 17 17 18 18 18 18 18 17
4 4 4 4 6 6 7 8 8 9 9 8 9 9 10 9 9 10 9 10 10 9 9 9 9 10 10 11 16 17 17 17 18 17 17 17 17 17
3 4 4 5 5 6 7 7 7 7 8 7 8 9 9 9 8 9 10 10 10 7 7 8 9 10 10 11 14 16 16 17 17 17 16 16 16 16
3 3 4 4 6 7 6 7 7 7 7 9 10 11 11 11 9 6 7 7 8 7 5 6 8 10 9 8 10 14 16 17 17 16 16 16 16 15
3 3 4 5 6 7 6 6 7 8 8 8 8 8 8 7 8 6 6 6 7 5 5 5 7 7 6 6 8 11 13 15 16 16 15 16 16 11
2 3 3 5 6 6 6 5 7 8 7 7 7 7 6 6 6 6 6 5 6 6 6 6 6 6 6 7 8 10 10 11 12 12 13 15 15 12
3 3 3 5 6 6 5 6 7 7 4 5 6 6 6 6 6 7 7 7 7 8 8 7 6 7 8 9 8 9 10 10 10 10 10 12 13 13
3 4 5 4 5 4 5 6 5 4 4 5 6 6 6 7 7 7 7 7 8 7 7 7 7 7 7 7 8 9 9 9 9 9 9 9 9 8
3 3 3 3 3 4 4 4 4 4 4 4 5 6 6 6 6 6 6 7 6 6 7 8 7 7 7 8 8 9 9 7 9 10 9 8 9 8
3 2 2 2 3 3 3 4 4 4 5 5 5 6 6 6 6 6 6 6 6 7 7 7 7 7 7 7 7 7 8 8 8 9 9 8 8 8
2 2 2 2 3 3 4 4 4 4 5 5 5 5 6 6 6 6 6 6 6 6 7 7 8 7 5 3 3 6 7 7 8 9 8 7 8 9
2 2 2 2 3 3 3 4 4 5 5 5 5 6 6 6 6 6 7 6 7 6 6 6 6 6 7 7 6 5 7 8 8 7 7 7 7 8
2 2 3 3 3 3 3 4 4 5 5 5 5 5 6 6 6 6 6 7 7 7 6 6 6 6 6 6 6 6 8 7 6 7 8 7 7 8
2 2 3 3 3 3 3 4 4 4 5 5 5 6 5 6 6 6 6 8 7 6 7 7 7 9 6 4 4 5 6 8 7 6 7 7 6 7
2 3 3 3 3 3 3 3 4 4 5 5 5 5 5 5 6 7 6 6 6 6 7 6 7 6 5 4 6 7 8 8 8 8 8 7 4 5
3 3 3 3 3 3 3 4 4 4 4 5 5 5 5 5 5 5 6 6 6 6 6 6 6 5 5 5 5 6 8 9 7 7 7 10 9 8
Wind_Direction
230 245 256 264 269 272 277 282 288 296 300 303 309 309 314 311 312 311 312 316 315 316 318 319 320 321 320 319 319 319 319 319 320 319 318 317 316 316
227 243 262 267 272 275 274 277 277 281 286 295 300 306 309 308 310 312 312 314 312 315 319 319 320 322 321 319 319 319 319 319 319 318 318 317 317 316
233 243 259 275 278 276 279 277 276 280 282 291 297 306 308 308 313 313 313 313 313 315 318 318 319 321 322 321 321 320 320 319 319 319 318 317 316 316
238 252 265 272 276 283 281 278 277 278 283 292 300 308 309 311 314 313 314 313 312 313 316 316 318 322 322 322 322 321 320 320 319 320 320 320 319 318
239 253 266 272 276 282 288 286 283 284 285 289 298 307 309 315 316 313 315 316 314 313 314 315 316 320 321 320 321 321 319 318 319 320 321 322 321 320
248 257 263 269 277 285 286 290 293 292 291 291 296 305 310 317 318 318 318 319 316 315 317 317 317 317 319 320 320 321 320 319 320 320 321 321 320 319
259 264 269 280 289 290 290 293 295 293 294 296 299 305 310 318 318 318 314 317 315 317 322 321 320 318 320 320 323 324 322 321 321 321 321 322 320 319
261 271 279 280 287 291 294 297 296 294 297 296 296 300 304 310 314 313 314 318 316 323 321 316 318 316 319 319 324 326 326 324 322 320 321 323 322 320
263 275 285 289 291 293 295 294 292 293 294 295 292 295 301 306 309 309 310 310 305 313 316 307 315 314 317 316 322 326 326 327 327 324 323 323 323 322
271 278 284 293 297 305 303 301 300 297 296 293 293 297 300 302 300 300 303 303 302 308 317 304 312 313 316 314 320 326 327 328 328 327 328 329 329 324
290 288 290 296 311 318 311 305 305 310 305 297 297 297 300 301 306 308 311 316 314 314 323 309 313 315 310 308 320 327 328 329 330 330 331 333 333 327
298 298 299 311 318 319 313 309 308 313 316 316 312 308 306 306 309 307 307 311 315 309 323 320 315 323 315 311 324 331 329 330 333 334 335 335 337 335
299 301 308 321 323 321 319 312 315 318 313 313 313 315 319 320 323 321 315 302 299 294 307 314 309 313 306 309 316 325 331 333 336 337 338 340 340 340
293 300 312 323 324 321 321 326 328 327 320 318 316 318 321 322 323 322 315 305 294 292 299 305 301 307 309 310 312 320 328 333 335 336 338 340 340 340
305 311 316 320 321 322 334 335 334 333 326 321 318 317 320 320 323 324 322 320 311 303 301 304 301 301 302 303 309 315 321 327 336 338 339 342 342 342
329 328 331 338 334 336 337 338 337 332 324 320 319 321 325 327 328 328 325 328 326 324 324 318 312 309 305 304 308 315 324 328 333 338 340 343 345 347
327 321 327 332 337 341 339 339 338 335 332 331 327 325 326 330 330 331 327 327 326 327 331 333 328 318 310 307 309 320 327 331 335 341 342 345 349 351
323 309 315 325 328 328 327 329 329 328 327 327 324 325 326 328 329 331 332 330 329 327 330 333 335 335 333 336 326 322 330 332 337 342 344 347 349 351
313 300 302 309 315 315 317 318 319 322 322 322 323 326 326 327 327 329 333 332 329 329 331 333 336 342 344 342 341 352 338 334 337 345 349 348 345 345
312 303 304 309 311 311 314 316 318 322 324 323 324 323 325 326 325 327 329 330 327 329 333 337 340 339 331 322 319 327 339 337 338 342 343 344 345 341
307 307 306 309 307 307 309 312 313 314 318 319 319 321 324 326 325 326 326 328 329 330 331 331 327 324 316 312 322 335 345 353 351 341 339 340 347 356
313 308 309 309 306 305 307 310 312 313 317 317 317 320 322 323 322 323 326 327 328 327 326 326 330 337 345 345 342 340 344 348 356 5 12 9 356 357
314 311 309 307 305 305 306 308 310 309 311 312 314 318 320 322 322 320 323 327 329 329 331 333 337 343 343 340 343 345 347 350 353 2 10 11 10 2
Height
1529 1528 1527 1526 1525 1523 1522 1520 1519 1514 1510 1506 1504 1501 1498 1494 1490 1486 1482 1477 1473 1468 1464 1459 1454 1450 1445 1441 1437 1433 1429 1425 1422 1418 1414 1411 1407 1404
1525 1525 1524 1523 1521 1520 1518 1517 1515 1513 1508 1504 1500 1497 1494 1490 1487 1483 1478 1473 1469 1464 1460 1455 1450 1446 1441 1437 1433 1429 1425 1421 1417 1413 1410 1406 1403 1399
1522 1521 1520 1520 1518 1517 1515 1513 1511 1509 1505 1500 1497 1494 1490 1487 1482 1479 1474 1470 1465 1460 1456 1451 1446 1442 1437 1433 1429 1424 1420 1417 1413 1409 1405 1401 1398 1394
1519 1518 1517 1516 1515 1513 1512 1510 1507 1505 1502 1497 1493 1490 1487 1483 1479 1475 1470 1466 1461 1457 1452 1447 1443 1438 1434 1429 1425 1421 1416 1412 1409 1405 1401 1397 1393 1390
1515 1515 1514 1513 1511 1510 1508 1506 1504 1501 1498 1495 1490 1487 1483 1479 1475 1471 1467 1462 1458 1453 1448 1444 1439 1435 1430 1426 1421 1417 1412 1408 1405 1401 1397 1393 1389 1385
1512 1511 1510 1509 1508 1506 1505 1503 1500 1498 1495 1491 1487 1483 1479 1476 1471 1466 1461 1458 1454 1449 1445 1440 1436 1431 1427 1422 1417 1413 1408 1404 1400 1397 1393 1389 1385 1381
1508 1508 1507 1506 1504 1503 1501 1499 1497 1494 1491 1488 1484 1479 1476 1471 1468 1463 1459 1454 1450 1446 1441 1437 1432 1427 1423 1418 1414 1409 1405 1401 1397 1393 1389 1385 1381 1378
1505 1504 1503 1502 1501 1499 1498 1496 1494 1491 1487 1484 1480 1477 1473 1469 1465 1461 1456 1451 1446 1443 1439 1433 1430 1424 1420 1415 1411 1406 1401 1397 1393 1389 1385 1381 1378 1374
1501 1500 1499 1498 1497 1495 1493 1491 1489 1487 1484 1481 1477 1474 1470 1467 1462 1458 1454 1450 1445 1441 1436 1430 1427 1422 1417 1412 1408 1403 1398 1393 1389 1385 1381 1378 1374 1371
1498 1497 1496 1495 1493 1491 1490 1487 1485 1482 1480 1477 1474 1471 1467 1464 1460 1457 1452 1447 1443 1439 1435 1429 1423 1419 1415 1410 1405 1400 1395 1391 1386 1382 1378 1375 1371 1368
1495 1494 1493 1491 1490 1488 1486 1484 1481 1478 1476 1474 1471 1468 1464 1461 1458 1454 1449 1445 1440 1435 1433 1428 1422 1416 1411 1407 1402 1398 1393 1388 1384 1379 1376 1372 1369 1366
1491 1490 1489 1488 1487 1485 1483 1480 1477 1475 1472 1469 1467 1464 1461 1458 1455 1452 1448 1443 1438 1434 1430 1426 1421 1416 1409 1405 1401 1396 1391 1387 1382 1378 1374 1371 1367 1364
1488 1487 1486 1485 1483 1482 1480 1478 1475 1472 1469 1466 1463 1461 1458 1455 1452 1449 1445 1442 1438 1433 1430 1426 1421 1416 1412 1405 1399 1395 1391 1386 1381 1377 1373 1370 1366 1363
1485 1484 1483 1482 1480 1479 1477 1475 1472 1470 1467 1464 1461 1458 1455 1452 1449 1446 1443 1440 1437 1433 1429 1425 1420 1416 1411 1405 1399 1394 1390 1386 1381 1377 1373 1369 1366 1363
1482 1481 1480 1479 1478 1476 1474 1472 1469 1467 1464 1461 1458 1456 1453 1450 1447 1444 1440 1437 1434 1431 1427 1423 1420 1415 1411 1406 1400 1394 1389 1385 1381 1377 1373 1369 1365 1362
1479 1479 1478 1476 1475 1474 1472 1470 1467 1465 1462 1459 1456 1454 1451 1448 1445 1441 1438 1435 1431 1428 1426 1422 1418 1414 1409 1405 1400 1395 1391 1387 1382 1378 1374 1370 1366 1363
1477 1476 1475 1474 1472 1471 1469 1467 1465 1463 1460 1457 1454 1452 1449 1446 1443 1440 1437 1434 1430 1426 1423 1420 1417 1413 1409 1405 1400 1396 1392 1388 1384 1379 1375 1370 1367 1364
1474 1473 1472 1471 1469 1468 1466 1464 1463 1460 1458 1456 1453 1450 1447 1444 1441 1439 1436 1433 1429 1426 1422 1419 1415 1411 1408 1404 1401 1397 1393 1389 1385 1381 1377 1372 1368 1365
1471 1470 1470 1469 1467 1466 1464 1462 1460 1458 1456 1454 1451 1448 1446 1443 1440 1437 1435 1432 1429 1426 1422 1419 1415 1412 1408 1404 1401 1398 1394 1390 1386 1382 1378 1374 1370 1367
1469 1468 1468 1467 1465 1464 1462 1460 1459 1457 1455 1453 1450 1447 1445 1442 1439 1437 1434 1431 1428 1425 1422 1419 1416 1413 1409 1406 1402 1399 1396 1392 1387 1383 1380 1376 1373 1370
1467 1466 1466 1465 1463 1462 1460 1458 1457 1455 1453 1451 1449 1446 1444 1441 1439 1436 1434 1431 1429 1426 1422 1419 1417 1414 1411 1407 1404 1400 1397 1394 1390 1386 1382 1378 1374 1371
1465 1464 1463 1462 1461 1460 1458 1457 1455 1453 1452 1450 1448 1445 1443 1441 1438 1436 1434 1431 1429 1426 1423 1420 1417 1414 1411 1408 1405 1401 1398 1395 1392 1389 1385 1382 1379 1375
1463 1462 1461 1460 1459 1458 1456 1455 1453 1452 1450 1448 1446 1444 1442 1440 1438 1436 1434 1431 1429 1427 1424 1421 1418 1415 1413 1410 1406 1403 1400 1397 1393 1390 1387 1385 1382 1379